Regional Weather Roundup
Issued by NWS Northern Indiana

Home | Current Version | Previous Version | Text Only | Print | Product List | Glossary Off
Versions: 1 2 3 4 5 6 7 8 9 10 11 12 13 14 15 16 17 18 19 20 21 22 23 24 25 26 27 28 29 30 31 32 33 34 35 36 37 38 39 40 41 42 43 44 45 46 47 48 49 50

000
ASUS43 KIWX 160400
RWRIWX

KIWX WEATHER ROUNDUP
NATIONAL WEATHER SERVICE NORTHERN INDIANA
1200 AM EDT TUE SEP 16 2014

NOTE: "FAIR" INDICATES FEW OR NO CLOUDS BELOW 12,000 FEET WITH NO
SIGNIFICANT WEATHER AND/OR OBSTRUCTIONS TO VISIBILITY.

* THESE STATIONS ARE NOT UNDER NWS QUALITY CONTROL. THEY ALSO MAY NOT
  REPORT WEATHER SUCH AS PRECIPITATION OR FOG.

INZ001>027-160500-
NORTHERN INDIANA

CITY           SKY/WX    TMP DP  RH WIND       PRES   REMARKS
GARY*          CLOUDY    59  53  80 N10G16    30.16R
VALPARAISO     CLOUDY    55  53  93 W5        30.15R FOG
SOUTH BEND     PTCLDY    53  51  93 N6        30.14R FOG
GOSHEN         FOG       51  49  92 CALM      30.13R VSB 1/4
WARSAW*        PTCLDY    50  50 100 CALM      30.13R FOG
ANGOLA*        CLOUDY    54  43  66 NW3       30.12S
FORT WAYNE     CLOUDY    54  52  93 CALM      30.13S
PERU/GRISSOM   CLOUDY    55  55 100 N3        30.13S

$$
INZ028>050-160500-
CENTRAL INDIANA

CITY           SKY/WX    TMP DP  RH WIND       PRES   REMARKS
LAFAYETTE      CLOUDY    55  55 100 N3        30.13S FOG
KOKOMO*        CLOUDY    55  54  94 NE3       30.13S
MUNCIE*        CLOUDY    56  54  93 NW5       30.12F FOG
INDIANAPOLIS   DRIZZLE   56  55  97 N7        30.11S FOG

$$
MIZ043>046-050>051-056>058-064>065-071>073-077>080-160500-
SOUTHWEST LOWER MICHIGAN

CITY           SKY/WX    TMP DP  RH WIND       PRES   REMARKS
BATTLE CREEK   CLOUDY    53  51  93 N3        30.12S
BENTON HARBOR  CLOUDY    53  51  93 NE3       30.13S
COLDWATER*     FOG       50  49  97 CALM      30.11S VSB 1/4
HILLSDALE*     MOCLDY    53  53 100 CALM      30.11S FOG
HOLLAND        MOCLDY    53  50  89 CALM      30.14S
GRAND RAPIDS   CLOUDY    53  51  93 N8        30.14R
KALAMAZOO      CLOUDY    53  51  93 N5        30.13R FOG
STURGIS*       PTCLDY    54  52  94 W5        30.12R FOG
THREE RIVERS*  CLOUDY    55  54  95 CALM      30.13R FOG

$$
OHZ001>008-015>018-024>025-160500-
NORTHWEST OHIO

CITY           SKY/WX    TMP DP  RH WIND       PRES   REMARKS
DEFIANCE       MOCLDY    52  51  97 SW3       30.12S FOG
FINDLAY        CLOUDY    55  53  93 MISG      30.10S
TOLEDO EXPRESS MOCLDY    53  52  96 SW5       30.10S
TOLEDO METCALF MOCLDY    54  51  90 W6        30.11S
LIMA           CLOUDY    55  53  93 N8        30.12S FOG

$$
&&



USA.gov is the U.S. government's official web portal to all federal, state and local government web resources and services.